STARLINK-4183, 53014

Orbit data source: Space-Track

STARLINK-4183, 53014 is a payload satellite owned by SpaceX/Seattle (US) in LEO that was launched on Thu, 07 Jul 2022 UTC via an FALCON 9 launch vehicle from the Air Force Eastern Test Range (AFETR). Payload-class satellites include a variety of spacecraft equipped with specific instruments for various scientific and technological missions. These include communications satellites like Starlink; space stations such as the ISS; scientific satellites like the Hubble; Earth observation satellites from companies like Planet Labs, Umbra, and HawkEye 360; GPS; miniature CubeSats for education and research; and military/defense satellites.

Loading next visibility...
Identifier
53014, 2022-076AE
Orbit
LEO
Country
Flag of USUS
Related business
Manufacturer
SpaceX/Seattle
Mission
Operational Commercial Communications
Bus & Motor
STARLINK, Unknown motor
Mass
297 kg wet, ~275 kg dry
Launch date (UTC)
2022-07-07 (4 years ago)
Launch vehicle
FALCON 9
Launch site
Air Force Eastern Test Range (AFETR)
Object type
Payload
Rocket body
Debris
Shape & HBR
Box + 1 Pan, 10.1 m
Radar Cross Section
13.562 m², Large (>1 m²)

Expand to show TLE details & history
Last TLE update: 2 days ago

TLE from 2 days ago
0 STARLINK-4183
1 53014U 22076AE  26171.18209675  .00000581  00000-0  54570-4 0  9994
2 53014  53.1597 343.8982 0001163  90.1744 269.9381 15.08833479218454
Epoch: 2026-06-20T04:22Z
TLE epoch observation values (Epoch: 2026-06-20T04:22:13.159Z)
Latitude
0.00002°
Longitude
9.94299°
Altitude
540.656 km
Speed
7.593 km/s
True Right ascension
22h 55m 35s
True Declination
0° 00' 00"
Sunlit
Object was in daylight at epoch
Visualization orbit readout
Latitude
Unknown
Longitude
Unknown
Altitude
Unknown
Speed
Unknown
Apparent Right ascension
Unknown
Apparent Declination
Unknown
Sunlit
N/A
Visualization observer readout
Local Sidereal Time
01:06:03
Azimuth
Unknown
Elevation
Unknown
Doppler factor
Unknown
Orbital elements
Apogee altitude
540.822 km
Perigee altitude
539.213 km
Semi-major axis
6,918.154 km
Eccentricity
0.00012
Inclination
53.1597°
RAAN
343.8982°
Arg. of periapsis
90.1744°
True anomaly
269.92477°
Mean anomaly
269.9381°
Eccentric anomaly
269.93144°
Mean motion
3.77188 °/min
Orbital period
95.44 mins
BSTAR
0.00005457
Loading maneuver chart data...
Computing Atmospheric mass density...
Loading historical data...
Loading historical data...
Loading historical data...
Loading historical data...
Loading historical data...
Loading historical data...
Loading historical data...

Documentation

Showing up to 5 results
|